Weather in Cuilapa

Guatemala     14°16′22″N   90°17′51″W
В апреле 2022 года жителям России запретили посещать сайт meteo.paraplan.net по решению Генеральной прокуратуры. Аудитория сайта уменьшилась в 10 раз. Владельцы сайта не видят смысла в поддержке погодного сервера в таких условиях. Сайт будет закрыт в октябре.
temp.,
°C
wind,
m/s
gust,
m/s
humid.,
%
clouds,
%
prec.,
mm/h
press.,
hPa
HPBL,
m
5 october, wed
wed500:00+17n229539 1.3 101540
03:00+16n339589 0.0 101449
06:00+16n339483 0.0 101553
09:00+23nne1270100 0.0 1015486
12:00+26s2259100 0.0 10121372
15:00+24s2279100 0.4 1011732
18:00+19nw1197100 1.1 101311
21:00+18nne2295100 0.3 101630
6 october, thu
thu600:00+17n2294100 0.3 101539
03:00+17n3395100 0.0 101451
06:00+17n229433 0.0 101549
09:00+23nne126992 0.0 1015578
12:00+26sse226538 0.2 10131167
15:00+24s12848 2.3 1012527
18:00+20n11945 4.1 101314
21:00+18nne229552 0.1 101641
7 october, fri
fri700:00+17n339537 0.1 101657
03:00+16n33957 0.0 101570
06:00+16n33946 0.0 101566
09:00+24nne12695 0.0 1015565
12:00+26sse126536 0.3 10131327
15:00+24s12845 3.0 1011438
18:00+19ne119366 6.1 101315
21:00+18n2295100 2.2 101637
8 october, sat
sat800:00+17n3395100 2.2 101554
03:00+17n339588 0.0 101472
06:00+16n349594 0.0 101577
09:00+23n23705 0.0 1015549
12:00+27wnw125953 0.0 10121436
15:00+24se128416 2.4 1010603
18:00+19nne229496 5.0 101222
21:00+18n329595 0.6 101448
9 october, sun
sun900:00+17n339499 0.6 101359
03:00+16n339387 0.0 101367
06:00+16n339335 0.0 101375
09:00+22n2370100 0.0 1013474
12:00+26wsw1259100 0.0 10101381
15:00+23se1287100 1.2 1009252
18:00+19n2293100 3.4 101120
21:00+17n2295100 0.1 101345